FENGYUN 1C DEB, 31495

Orbit data source: Space-Track

FENGYUN 1C DEB, 31495 is space debris in SSO originally from a launch on Mon, 10 May 1999 UTC launched from the Taiyaun Space Center, China (TSC). Fengyun 1C debris stems from the Chinese weather satellite Fengyun-1C, which was intentionally destroyed by a Chinese anti-satellite missile in 2007. This event dramatically increased the amount of space debris, with thousands of trackable fragments posing hazards to satellites and human spaceflight. The Fengyun 1C debris cloud has become a focal point in discussions about space sustainability and the need for international regulations to prevent the creation of new debris.

Loading next visibility...
Identifier
31495, 1999-025BWJ
Orbit
SSO
Country
Flag of CNCN / PRC
Related business
Manufacturer
Unknown
Mission
Spacecraft
Bus & Motor
Unknown
Mass
Unknown
Launch date (UTC)
1999-05-10 (27 years ago)
Launch vehicle
Unknown
Launch site
Taiyaun Space Center, China (TSC)
Object type
Payload
Rocket body
Debris
Shape & HBR
Unknown shape, 0.1 m
Radar Cross Section
Small (<0.1 m²)

Expand to show TLE details & history
Last TLE update: 2 weeks ago

TLE from 2 weeks ago
0 FENGYUN 1C DEB
1 31495U 99025BWJ 26145.94095050  .00002280  00000-0  89457-3 0  9995
2 31495  99.1084  31.7278 0028167  63.2704 297.1355 14.30220596657371
Epoch: 2026-05-25T22:34Z
TLE epoch observation values (Epoch: 2026-05-25T22:34:58.123Z)
Latitude
0.00002°
Longitude
169.46409°
Altitude
784.742 km
Speed
7.466 km/s
True Right ascension
02h 06m 54s
True Declination
0° 00' 00"
Sunlit
Object was in daylight at epoch
Visualization orbit readout
Latitude
Unknown
Longitude
Unknown
Altitude
Unknown
Speed
Unknown
Apparent Right ascension
Unknown
Apparent Declination
Unknown
Sunlit
N/A
Visualization observer readout
Local Sidereal Time
05:38:29
Azimuth
Unknown
Elevation
Unknown
Doppler factor
Unknown
Orbital elements
Apogee altitude
808.343 km
Perigee altitude
767.973 km
Semi-major axis
7,166.295 km
Eccentricity
0.00282
Inclination
99.1084°
RAAN
31.7278°
Arg. of periapsis
63.2704°
True anomaly
296.8478°
Mean anomaly
297.1355°
Eccentric anomaly
296.99169°
Mean motion
3.57768 °/min
Orbital period
100.62 mins
BSTAR
0.00089457
Loading maneuver chart data...
Computing Atmospheric mass density...
Loading historical data...
Loading historical data...
Loading historical data...
Loading historical data...
Loading historical data...
Loading historical data...
Loading historical data...

Documentation

Showing up to 5 results
|